Retour au catalogue

VANGUARD DEB

ActifUNKNOWN
NORAD 1576·DEBRIS·🇺🇸 United States

Lancé Mar 17, 1958 depuis Cape Canaveral Space Force Station

Loading…

Prochains Passages (prochaines 24 heures)

TLE

FraisSource: Space-Track

Époque: Sep 14, 2026, 09:14 UTC

1 01576U 58002C   26257.38503537  .00002288  00000-0  20188-2 0  9991
2 01576  34.2216 143.4136 1385998 136.4130 235.4741 11.83529432812670

Suivez VANGUARD DEB en temps réel avec AllMySat

Download on the App Store